Location: Lucerne Valley
(34.4439°N, 116.9669°E)
Time: 01:16:36
(UTC-07:00)

Tiangong 1 - Pass Details

Date: 13 October 2017
Orbit: 292 x 320 km, 42.8° (Epoch: 22 October)

Event Time Altitude Azimuth Distance (km) Brightness Sun altitude
Rises 03:16:11 0° 303° (WNW) 2,042 5.7 -8.1°
Reaches altitude 10° 03:18:40 10° 327° (NNW) 1,205 4.0 -8.6°
Maximum altitude 03:20:25 16° 8° (N) 936 2.9 -9.0°
Drops below altitude 10° 03:22:11 10° 49° (NE) 1,193 3.1 -9.4°
Enters shadow 03:22:11 10° 49° (NE) 1,194 3.1 -9.4°
